DAL85T KMIA-MUHA

Flight info

Callsign DAL85T
Flight time N/A
Altitude 30000
Route KMIA/08R GLADZ4 LULLS Y196 CANOA ENTRY5 MUHA/I06
Aircraft A20N/M-SDE2E3FGHIRWXY/LB1

Departure

Time 2026-05-03 21:51
Airport Miami International Airport (KMIA)

Arrival

Time N/A
Airport José Martí International Airport (MUHA)
Time Latitude Longitude Altitude Speed Heading
2026-05-03 21:21 25.79464 -80.28460 15 ft 0 kts 72°
2026-05-03 21:28 25.79464 -80.28461 15 ft 0 kts 72°
2026-05-03 21:38 25.79462 -80.28469 16 ft 3 kts 72°
2026-05-03 21:38 25.79460 -80.28477 15 ft 1 kts 72°
2026-05-03 21:39 25.79454 -80.28496 15 ft 2 kts 72°
2026-05-03 21:39 25.79449 -80.28516 15 ft 5 kts 75°
2026-05-03 21:39 25.79441 -80.28549 15 ft 3 kts 71°
2026-05-03 21:39 25.79426 -80.28570 16 ft 8 kts 19°
2026-05-03 21:40 25.79414 -80.28573 18 ft 1 kts 354°
2026-05-03 21:40 25.79415 -80.28573 18 ft 0 kts 355°
2026-05-03 21:41 25.79421 -80.28573 15 ft 1 kts 356°
2026-05-03 21:41 25.79428 -80.28573 16 ft 0 kts 356°
2026-05-03 21:41 25.79439 -80.28574 15 ft 10 kts 356°
2026-05-03 21:41 25.79590 -80.28583 15 ft 9 kts 341°
2026-05-03 21:42 25.79624 -80.28642 15 ft 10 kts 255°
2026-05-03 21:42 25.79617 -80.28718 16 ft 2 kts 270°
2026-05-03 21:42 25.79615 -80.28746 15 ft 0 kts 263°
2026-05-03 21:42 25.79615 -80.28749 15 ft 2 kts 263°
2026-05-03 21:43 25.79587 -80.28812 15 ft 9 kts 201°
2026-05-03 21:43 25.79504 -80.28804 15 ft 13 kts 182°
2026-05-03 21:43 25.79415 -80.28797 17 ft 6 kts 179°
2026-05-03 21:43 25.79410 -80.28798 16 ft 0 kts 190°
2026-05-03 21:44 25.79401 -80.28800 15 ft 4 kts 189°
2026-05-03 21:45 25.79357 -80.28820 14 ft 8 kts 229°
2026-05-03 21:45 25.79367 -80.28883 16 ft 10 kts 304°
2026-05-03 21:45 25.79396 -80.28946 16 ft 10 kts 302°
2026-05-03 21:45 25.79434 -80.29023 15 ft 31 kts 292°
2026-05-03 21:46 25.79534 -80.29208 15 ft 11 kts 315°
2026-05-03 21:46 25.79575 -80.29301 15 ft 17 kts 294°
2026-05-03 21:46 25.79633 -80.29396 15 ft 0 kts 291°
2026-05-03 21:47 25.79634 -80.29397 15 ft 2 kts 291°
2026-05-03 21:47 25.79647 -80.29435 15 ft 9 kts 291°
2026-05-03 21:47 25.79685 -80.29515 15 ft 14 kts 307°
2026-05-03 21:47 25.79745 -80.29627 14 ft 20 kts 298°
2026-05-03 21:48 25.79820 -80.29777 14 ft 25 kts 299°
2026-05-03 21:48 25.79901 -80.29936 14 ft 7 kts 313°
2026-05-03 21:48 25.79917 -80.29954 14 ft 6 kts 316°
2026-05-03 21:48 25.79955 -80.30012 13 ft 13 kts 306°
2026-05-03 21:49 25.80010 -80.30114 14 ft 17 kts 307°
2026-05-03 21:49 25.80082 -80.30123 14 ft 8 kts 54°
2026-05-03 21:49 25.80078 -80.30058 13 ft 11 kts 84°
2026-05-03 21:49 25.80077 -80.30017 13 ft 0 kts 92°
2026-05-03 21:50 25.80077 -80.30016 13 ft 1 kts 92°
2026-05-03 21:50 25.80078 -80.29780 13 ft 84 kts 90°
2026-05-03 21:50 25.80137 -80.28760 61 ft 172 kts 87°
2026-05-03 21:51 25.80216 -80.27438 1111 ft 181 kts 85°
2026-05-03 21:51 25.80320 -80.25939 2150 ft 206 kts 85°
2026-05-03 21:51 25.80427 -80.24282 3257 ft 222 kts 86°
2026-05-03 21:51 25.80489 -80.22503 4192 ft 243 kts 89°
2026-05-03 21:52 25.80529 -80.20536 5157 ft 270 kts 89°
2026-05-03 21:52 25.80904 -80.18420 6227 ft 290 kts 65°
2026-05-03 21:52 25.82089 -80.16648 7504 ft 294 kts 38°
2026-05-03 21:52 25.83893 -80.15570 8888 ft 295 kts 11°
2026-05-03 21:53 25.85914 -80.15334 10260 ft 296 kts 355°
2026-05-03 21:53 25.88036 -80.15477 11193 ft 317 kts 348°
2026-05-03 21:53 25.90281 -80.15969 11942 ft 340 kts 341°
2026-05-03 21:53 25.92585 -80.16806 12965 ft 352 kts 336°
2026-05-03 21:54 25.93777 -80.17269 13627 ft 356 kts 336°
2026-05-03 21:54 25.96142 -80.18408 13973 ft 387 kts 324°
2026-05-03 21:54 25.98273 -80.20402 14087 ft 394 kts 308°
2026-05-03 21:54 25.99794 -80.22923 14359 ft 398 kts 292°
2026-05-03 21:55 26.00618 -80.25810 15086 ft 391 kts 278°
2026-05-03 21:55 26.00757 -80.28789 15219 ft 386 kts 263°
2026-05-03 21:55 26.00377 -80.31756 15330 ft 387 kts 261°
2026-05-03 21:55 26.00040 -80.34690 15439 ft 387 kts 263°
2026-05-03 21:56 25.99839 -80.37724 15548 ft 388 kts 266°
2026-05-03 21:56 25.99515 -80.40696 15671 ft 387 kts 257°
2026-05-03 21:56 25.98697 -80.43550 15776 ft 388 kts 247°
2026-05-03 21:56 25.97384 -80.46157 15918 ft 389 kts 236°
2026-05-03 21:57 25.95720 -80.48525 16071 ft 385 kts 233°
2026-05-03 21:57 25.94046 -80.50886 16106 ft 395 kts 233°
2026-05-03 21:57 25.93036 -80.52320 16462 ft 399 kts 233°
2026-05-03 21:57 25.91350 -80.54710 17728 ft 391 kts 233°
2026-05-03 21:58 25.89677 -80.57079 18802 ft 392 kts 234°
2026-05-03 21:58 25.87965 -80.59508 19315 ft 404 kts 234°
2026-05-03 21:58 25.86220 -80.61987 19970 ft 407 kts 234°
2026-05-03 21:58 25.84491 -80.64433 20709 ft 409 kts 234°
2026-05-03 21:59 25.82725 -80.66927 21376 ft 412 kts 234°
2026-05-03 21:59 25.80962 -80.69458 22052 ft 414 kts 236°